Content
SEND FEEDBACK

Daily
Averages
Monthly
Summary
United States of America

WICHITA, KANSAS


Home > North America > United States > Kansas
Elevation: 1321 feet     Latitude: 37 39N     Longitude: 097 26W

WEATHER
 
SELECT A DAY
Number of Records: 191,741;   Date Range: 1/1/95 - 7/7/14
 
SHARE

PRINT THIS DATA

[ ← Previous Day ]
WEATHER ALMANAC - APRIL 21, 2013
[ Next Day → ]
[ °C ]   °F
Weather ElementAverageHighLow
Temperature59.3 °F69.1 °F (3:53 pm)50 °F (6:53 am)
Dewpoint41.4 °F45 °F (7:53 pm)37.9 °F (1:53 am)
Humidity52.8 %71 % (11:53 pm)38 % (3:53 pm)
Barometer30.09 in30.14 in (7:53 am)30.03 in (5:53 pm)
Wind Speed15.4 mph24.2 mph (9:53 am)
Wind Gust34.5 mph (12:53 pm)
Weather ElementAverage
Visibility10 mi
Wind DirectionSSE (167 °)

Weather ElementTotal
Precipitation---
Heating Degree Days5.5 (Base 65)
Growing Degree Days9.6 (Base 50)
Averaged from 23 records on April 21, 2013
WEATHER CONDITIONS BREAKOUT
WIND DIRECTION BREAKOUT
WEATHER BY HOUR - APRIL 21, 2013
[ °C ]   °F
Local TimeTemperatureDewpointHumidityBarometerVisibilityWind DirectionWind SpeedGust SpeedPrecipitationEventsConditions
1:53 AM54.0 °F37.9 °F55 %30.08 in10.0 miSouth (180°)9.2 mph0.00 inRainLight Rain
2:53 AM54.0 °F39.0 °F57 %30.09 in10.0 miSouth (180°)10.4 mph0.00 inOvercast
3:53 AM55.0 °F37.9 °F53 %30.07 in10.0 miSSE (150°)13.8 mphOvercast
4:53 AM54.0 °F37.9 °F55 %30.08 in10.0 miSE (140°)13.8 mphOvercast
5:53 AM53.1 °F37.9 °F57 %30.08 in10.0 miSE (130°)11.5 mphMostly Cloudy
6:53 AM50.0 °F37.9 °F63 %30.11 in10.0 miSE (140°)4.6 mphMostly Cloudy
7:53 AM51.1 °F39.9 °F66 %30.14 in10.0 miSSE (160°)8.1 mphScattered Clouds
8:53 AM55.9 °F41.0 °F57 %30.14 in10.0 miSSE (160°)13.8 mphScattered Clouds
9:53 AM59.0 °F41.0 °F51 %30.14 in10.0 miSouth (170°)24.2 mph29.9 mphPartly Cloudy
10:53 AM62.1 °F41.0 °F46 %30.14 in10.0 miSouth (180°)24.2 mph32.2 mphPartly Cloudy
11:53 AM64.0 °F42.1 °F45 %30.13 in10.0 miSouth (190°)23.0 mph31.1 mphPartly Cloudy
12:53 PM64.9 °F42.1 °F43 %30.11 in10.0 miSouth (170°)24.2 mph34.5 mphPartly Cloudy
1:53 PM66.9 °F42.1 °F40 %30.09 in10.0 miSouth (180°)24.2 mph34.5 mphPartly Cloudy
2:53 PM68.0 °F43.0 °F40 %30.07 in10.0 miSouth (180°)24.2 mph32.2 mphPartly Cloudy
3:53 PM69.1 °F42.1 °F38 %30.05 in10.0 miSouth (170°)23.0 mph31.1 mphPartly Cloudy
4:53 PM68.0 °F42.1 °F39 %30.04 in10.0 miSouth (170°)20.7 mphScattered Clouds
5:53 PM68.0 °F42.1 °F39 %30.03 in10.0 miSouth (170°)16.1 mph26.5 mphScattered Clouds
6:53 PM66.0 °F43.0 °F43 %30.05 in10.0 miSouth (180°)16.1 mphPartly Cloudy
7:53 PM61.0 °F45.0 °F56 %30.06 in10.0 miSouth (180°)8.1 mphPartly Cloudy
8:53 PM55.0 °F45.0 °F69 %30.08 in10.0 miSouth (170°)8.1 mphPartly Cloudy
9:53 PM57.0 °F45.0 °F64 %30.08 in10.0 miSouth (170°)10.4 mphScattered Clouds
10:53 PM55.0 °F44.1 °F67 %30.08 in10.0 miSSE (160°)10.4 mphScattered Clouds
11:53 PM53.1 °F44.1 °F71 %30.07 in10.0 miSSE (160°)12.7 mphScattered Clouds
Hourly data recorded from KICT, located miles away from Wichita, Kansas







STORIES FROM OUR PARTNERS